TGW284 WAAA-WIMM

Flight info

Callsign TGW284
Flight time N/A
Altitude 40000
Route GURNI W35 PNK L504 OBDOS M774 OTLAL DCT TPG A464 IRTAD DCT SAMKO R469 ASUNA/N0480F410 L762 MIBEL/N0479F400 L762 AKPAG
Aircraft B789/H-SDE1E2E3FGHIJ2J3J4J5M1RWXY/LB1D1

Departure

Time 2026-04-24 07:00
Airport Sultan Hasanuddin International Airport (WAAA)

Arrival

Time N/A
Airport Kualanamu International Airport (WIMM)
Time Latitude Longitude Altitude Speed Heading
2026-04-24 06:35 -5.07716 119.54778 47 ft 0 kts 299°
2026-04-24 06:45 -5.07719 119.54785 45 ft 2 kts 296°
2026-04-24 06:45 -5.07727 119.54800 47 ft 2 kts 294°
2026-04-24 06:45 -5.07733 119.54815 43 ft 2 kts 289°
2026-04-24 06:46 -5.07737 119.54831 45 ft 2 kts 278°
2026-04-24 06:46 -5.07737 119.54847 45 ft 2 kts 257°
2026-04-24 06:46 -5.07730 119.54862 43 ft 2 kts 226°
2026-04-24 06:46 -5.07725 119.54867 43 ft 2 kts 217°
2026-04-24 06:47 -5.07719 119.54871 42 ft 0 kts 211°
2026-04-24 06:48 -5.07732 119.54863 43 ft 5 kts 211°
2026-04-24 06:49 -5.07786 119.54831 47 ft 13 kts 210°
2026-04-24 06:49 -5.07881 119.54775 45 ft 19 kts 210°
2026-04-24 06:49 -5.08007 119.54738 46 ft 18 kts 155°
2026-04-24 06:49 -5.08054 119.54807 46 ft 12 kts 118°
2026-04-24 06:50 -5.08109 119.54840 46 ft 8 kts 194°
2026-04-24 06:50 -5.08164 119.54813 46 ft 11 kts 209°
2026-04-24 06:50 -5.08247 119.54767 46 ft 16 kts 210°
2026-04-24 06:50 -5.08359 119.54701 46 ft 20 kts 210°
2026-04-24 06:51 -5.08480 119.54630 47 ft 21 kts 210°
2026-04-24 06:51 -5.08606 119.54557 47 ft 21 kts 210°
2026-04-24 06:51 -5.08737 119.54483 47 ft 22 kts 210°
2026-04-24 06:51 -5.08836 119.54427 47 ft 10 kts 210°
2026-04-24 06:52 -5.08893 119.54394 47 ft 0 kts 210°
2026-04-24 06:52 -5.08902 119.54389 47 ft 4 kts 210°
2026-04-24 06:52 -5.08941 119.54367 47 ft 9 kts 210°
2026-04-24 06:52 -5.08981 119.54343 47 ft 0 kts 211°
2026-04-24 06:53 -5.08988 119.54339 47 ft 2 kts 211°
2026-04-24 06:53 -5.09009 119.54327 47 ft 5 kts 211°
2026-04-24 06:53 -5.09029 119.54314 47 ft 0 kts 211°
2026-04-24 06:55 -5.09033 119.54312 47 ft 3 kts 211°
2026-04-24 06:55 -5.09050 119.54302 47 ft 6 kts 210°
2026-04-24 06:55 -5.09096 119.54277 46 ft 9 kts 202°
2026-04-24 06:55 -5.09143 119.54280 47 ft 5 kts 150°
2026-04-24 06:56 -5.09167 119.54303 47 ft 4 kts 129°
2026-04-24 06:56 -5.09169 119.54306 47 ft 0 kts 128°
2026-04-24 06:57 -5.09171 119.54309 47 ft 3 kts 128°
2026-04-24 06:58 -5.09194 119.54343 47 ft 9 kts 117°
2026-04-24 06:58 -5.09195 119.54413 47 ft 10 kts 60°
2026-04-24 06:58 -5.09151 119.54449 48 ft 0 kts 30°
2026-04-24 06:59 -5.09148 119.54451 48 ft 1 kts 30°
2026-04-24 06:59 -5.09066 119.54499 49 ft 36 kts 30°
2026-04-24 06:59 -5.08638 119.54748 48 ft 110 kts 30°
2026-04-24 06:59 -5.07750 119.55263 64 ft 180 kts 30°
2026-04-24 07:00 -5.06583 119.55815 730 ft 187 kts 15°
2026-04-24 07:00 -5.05281 119.55845 1472 ft 186 kts 355°
2026-04-24 07:00 -5.03958 119.55829 2161 ft 197 kts 359°
2026-04-24 07:00 -5.02526 119.55847 2684 ft 214 kts
2026-04-24 07:01 -5.00981 119.55856 3226 ft 230 kts
2026-04-24 07:01 -4.99331 119.55858 3787 ft 245 kts
2026-04-24 07:01 -4.97553 119.55860 4350 ft 264 kts
2026-04-24 07:01 -4.95721 119.55836 5180 ft 270 kts 358°
2026-04-24 07:02 -4.93828 119.55467 6046 ft 276 kts 349°
2026-04-24 07:02 -4.91939 119.55090 6929 ft 278 kts 351°
2026-04-24 07:02 -4.90019 119.54733 7754 ft 283 kts 351°
2026-04-24 07:02 -4.88097 119.54367 8583 ft 287 kts 351°
2026-04-24 07:03 -4.86099 119.53977 9438 ft 291 kts 351°
2026-04-24 07:03 -4.84128 119.53574 10179 ft 296 kts 348°
2026-04-24 07:03 -4.82249 119.52604 10501 ft 319 kts 320°
2026-04-24 07:03 -4.80937 119.50744 10896 ft 338 kts 295°
2026-04-24 07:04 -4.80096 119.48487 11395 ft 352 kts 288°
2026-04-24 07:04 -4.79352 119.46117 12063 ft 359 kts 288°
2026-04-24 07:04 -4.78511 119.43739 12830 ft 364 kts 291°
2026-04-24 07:04 -4.77585 119.41363 13613 ft 368 kts 291°
2026-04-24 07:05 -4.76671 119.38950 14315 ft 373 kts 290°
2026-04-24 07:05 -4.75789 119.36493 15059 ft 376 kts 289°
2026-04-24 07:05 -4.74897 119.34010 15722 ft 381 kts 290°
2026-04-24 07:05 -4.73965 119.31508 16410 ft 386 kts 290°
2026-04-24 07:06 -4.73019 119.28973 17097 ft 390 kts 290°
2026-04-24 07:06 -4.72078 119.26407 17792 ft 394 kts 290°
2026-04-24 07:06 -4.71133 119.23817 18422 ft 398 kts 290°
2026-04-24 07:06 -4.70171 119.21202 18976 ft 402 kts 290°
2026-04-24 07:07 -4.69198 119.18572 19557 ft 406 kts 290°
2026-04-24 07:07 -4.68216 119.15905 20135 ft 409 kts 290°
2026-04-24 07:07 -4.66230 119.10501 21273 ft 417 kts 290°
2026-04-24 07:08 -4.65219 119.07757 21810 ft 421 kts 290°
2026-04-24 07:08 -4.64199 119.04990 22368 ft 425 kts 290°
2026-04-24 07:08 -4.63170 119.02195 22897 ft 429 kts 290°
2026-04-24 07:08 -4.62142 118.99402 23416 ft 433 kts 290°
2026-04-24 07:09 -4.61094 118.96559 23847 ft 437 kts 290°
2026-04-24 07:09 -4.60036 118.93689 24278 ft 441 kts 290°
2026-04-24 07:09 -4.58971 118.90797 24723 ft 444 kts 290°
2026-04-24 07:09 -4.57898 118.87886 25171 ft 447 kts 290°
2026-04-24 07:10 -4.56832 118.84992 25604 ft 450 kts 291°
2026-04-24 07:10 -4.55729 118.82000 26045 ft 453 kts 291°
2026-04-24 07:10 -4.54648 118.79070 26481 ft 456 kts 291°
2026-04-24 07:10 -4.53545 118.76076 26907 ft 459 kts 291°
2026-04-24 07:11 -4.52419 118.73023 27328 ft 463 kts 291°
2026-04-24 07:11 -4.51317 118.70027 27742 ft 466 kts 291°
2026-04-24 07:11 -4.50195 118.66971 28164 ft 469 kts 291°
2026-04-24 07:11 -4.49063 118.63896 28583 ft 472 kts 291°
2026-04-24 07:12 -4.47922 118.60798 28979 ft 475 kts 291°
2026-04-24 07:12 -4.46775 118.57682 29391 ft 478 kts 291°
2026-04-24 07:12 -4.45621 118.54547 29788 ft 482 kts 291°
2026-04-24 07:12 -4.44458 118.51388 30133 ft 485 kts 291°
2026-04-24 07:13 -4.43289 118.48214 30461 ft 488 kts 291°
2026-04-24 07:13 -4.42111 118.45013 30800 ft 491 kts 291°
2026-04-24 07:13 -4.40926 118.41799 31139 ft 493 kts 291°
2026-04-24 07:13 -4.39733 118.38560 31451 ft 496 kts 291°
2026-04-24 07:14 -4.38537 118.35304 31777 ft 499 kts 291°
2026-04-24 07:14 -4.37336 118.32030 32103 ft 502 kts 291°
2026-04-24 07:14 -4.36128 118.28739 32422 ft 505 kts 291°
2026-04-24 07:14 -4.34908 118.25423 32733 ft 508 kts 291°
2026-04-24 07:15 -4.33683 118.22092 33058 ft 511 kts 291°
2026-04-24 07:15 -4.32450 118.18737 33365 ft 514 kts 291°
2026-04-24 07:15 -4.31211 118.15364 33669 ft 517 kts 291°
2026-04-24 07:15 -4.29964 118.11975 33955 ft 520 kts 291°
2026-04-24 07:16 -4.28709 118.08564 34254 ft 522 kts 291°
2026-04-24 07:16 -4.27453 118.05149 34665 ft 522 kts 291°
2026-04-24 07:16 -4.26202 118.01747 35137 ft 519 kts 291°
2026-04-24 07:16 -4.24956 117.98359 35625 ft 517 kts 291°
2026-04-24 07:17 -4.23715 117.94989 36104 ft 515 kts 291°
2026-04-24 07:17 -4.22480 117.91633 36578 ft 512 kts 291°
2026-04-24 07:17 -4.21250 117.88292 37057 ft 510 kts 291°
2026-04-24 07:17 -4.20026 117.84967 37521 ft 508 kts 291°
2026-04-24 07:18 -4.18808 117.81660 37984 ft 505 kts 291°
2026-04-24 07:18 -4.17594 117.78363 38452 ft 503 kts 291°
2026-04-24 07:18 -4.16388 117.75088 38839 ft 501 kts 291°
2026-04-24 07:18 -4.15185 117.71822 39193 ft 499 kts 291°
2026-04-24 07:19 -4.13985 117.68566 39519 ft 498 kts 291°
2026-04-24 07:19 -4.12785 117.65310 39724 ft 499 kts 291°
2026-04-24 07:19 -4.10390 117.58811 39804 ft 495 kts 291°
2026-04-24 07:20 -4.08019 117.52380 39790 ft 491 kts 291°
2026-04-24 07:20 -4.05656 117.45975 39803 ft 491 kts 291°
2026-04-24 07:21 -4.03290 117.39559 39802 ft 491 kts 291°
2026-04-24 07:21 -4.00919 117.33133 39808 ft 492 kts 291°
2026-04-24 07:22 -3.98547 117.26707 39807 ft 492 kts 291°
2026-04-24 07:22 -3.96868 117.20079 39803 ft 492 kts 282°
2026-04-24 07:23 -3.95486 117.13362 39805 ft 492 kts 283°
2026-04-24 07:23 -3.94021 117.06708 39819 ft 492 kts 283°
2026-04-24 07:24 -3.92611 116.99999 39823 ft 493 kts 283°
2026-04-24 07:24 -3.91157 116.93292 39821 ft 493 kts 283°